Theta_e
344 356 364 361 359 359 358 356 356 357 359 360 361 361 361 362 362 362 362 361 361 359 357 355 353 353 353 353 353 355 357 359 356 352 352 354 355 356 356 354 353 348 352
348 357 363 362 360 358 358 357 356 358 359 360 360 359 360 361 362 362 361 360 360 356 354 352 352 352 352 351 351 353 353 353 355 354 351 350 349 353 354 356 355 349 353
352 358 361 362 361 359 358 356 355 356 357 359 359 359 359 359 358 358 360 359 358 354 353 352 351 351 350 350 349 349 352 354 355 353 350 339 340 350 353 355 355 355 354
354 357 358 362 361 359 358 356 355 356 356 357 357 357 357 357 357 355 357 357 355 354 353 352 352 351 350 349 348 347 349 350 350 348 334 334 336 354 353 357 357 355 353
354 357 358 362 362 360 358 356 356 357 357 356 357 357 357 357 356 356 356 356 354 352 352 351 351 352 350 348 349 348 347 347 347 341 329 327 329 345 356 357 355 355 352
352 355 360 362 361 361 358 356 357 358 357 357 357 357 357 357 356 356 355 355 354 352 351 351 352 352 351 350 350 348 347 346 343 330 329 331 334 346 358 357 355 354 353
352 355 358 362 362 361 358 357 358 359 359 358 357 357 357 357 356 354 354 353 353 352 351 350 351 352 353 352 350 349 348 345 336 331 330 328 330 348 359 358 357 355 353
351 354 356 361 361 361 360 358 359 359 360 359 358 357 356 355 355 354 353 352 352 353 353 352 352 353 352 352 351 350 348 346 340 332 331 329 333 348 358 357 357 357 352
352 353 354 355 358 360 360 359 359 358 359 359 358 357 357 355 354 353 353 352 352 354 353 353 353 353 352 350 350 349 348 346 334 333 334 331 338 343 353 357 358 356 353
349 350 352 354 355 355 355 360 359 358 358 358 358 357 357 356 355 354 355 355 353 353 352 353 353 353 352 350 349 349 347 345 334 331 333 332 342 346 347 358 358 354 353
344 344 349 351 352 353 353 355 358 356 356 357 356 357 355 350 348 351 353 353 352 352 352 353 352 352 351 351 350 349 346 334 331 332 331 339 345 350 351 356 357 354 351
338 341 345 347 348 349 353 350 351 351 351 351 350 348 349 346 345 350 352 354 353 352 354 354 353 352 350 342 341 346 340 334 331 332 332 342 346 352 353 356 355 353 351
337 339 343 343 345 345 346 347 350 348 346 347 346 345 346 346 343 346 345 347 346 352 349 349 348 345 341 340 338 334 334 334 333 334 335 342 351 352 355 356 353 352 350
337 337 340 342 342 342 340 343 345 345 343 344 345 344 343 342 339 341 341 342 341 345 345 345 341 341 339 339 337 335 332 329 331 332 333 343 348 353 353 351 352 350 350
338 337 336 339 339 340 336 338 339 342 341 342 341 342 342 340 338 338 337 336 338 339 342 342 341 339 336 336 336 335 333 331 330 333 334 343 347 349 347 350 350 347 345
329 337 336 336 337 337 336 336 338 338 339 340 340 341 341 339 338 336 333 333 333 335 338 340 339 338 336 334 334 334 334 334 336 336 335 336 346 348 347 347 347 345 344
333 331 336 334 335 334 333 334 338 339 338 337 338 338 339 339 337 335 334 333 334 335 336 336 336 335 332 331 332 333 333 335 334 333 334 333 336 346 346 345 345 346 346
338 330 332 339 336 335 334 335 338 340 339 337 337 337 338 338 337 334 334 334 336 335 334 334 334 333 333 330 331 331 331 332 332 332 333 333 333 334 337 344 344 345 345
342 336 329 335 334 334 335 336 338 339 339 339 338 338 338 338 338 336 336 335 336 336 336 336 333 331 330 328 329 329 330 329 331 333 332 332 332 333 332 336 339 340 338
341 341 342 342 339 336 335 335 336 337 338 336 336 337 338 337 333 332 332 332 333 331 332 333 332 329 326 326 329 329 329 329 330 330 331 333 332 333 333 332 332 334 336
337 336 336 337 337 339 341 341 335 336 334 335 336 338 334 336 332 330 330 328 332 330 331 333 331 328 328 327 326 326 326 328 328 329 330 330 329 330 331 332 331 332 332
332 333 334 335 337 337 336 337 339 337 335 332 334 329 337 332 332 330 329 328 329 329 328 330 329 328 329 328 326 322 318 318 322 323 325 326 326 328 329 330 328 329 327
328 330 330 332 334 335 335 333 334 337 336 334 333 333 332 333 332 331 332 328 332 329 327 327 329 330 328 326 328 324 314 312 313 316 319 321 325 324 326 325 323 324 323
327 328 329 329 330 333 334 333 329 329 331 333 332 332 331 333 334 333 334 335 331 334 331 329 329 332 331 327 324 327 322 319 313 311 315 317 317 320 320 318 317 319 320
327 325 325 325 325 328 330 330 329 325 328 331 332 331 334 334 333 332 329 330 328 330 334 332 332 332 331 329 324 322 321 319 318 315 312 309 313 314 314 316 315 313 313
322 322 322 321 323 324 325 327 326 324 323 323 324 324 323 324 326 327 327 326 326 327 330 331 331 330 329 328 325 322 319 317 314 313 312 312 311 312 311 311 312 312 312
Wind_Speed
4 9 15 13 14 18 18 19 19 19 18 17 16 17 18 18 18 17 17 16 14 15 14 13 12 11 11 11 11 9 9 10 10 12 12 12 11 12 12 12 12 7 12
13 10 16 14 14 15 17 18 18 19 18 18 18 17 17 17 17 16 15 15 14 15 14 13 12 11 10 10 10 9 9 9 8 9 9 10 11 12 13 13 13 10 12
16 12 13 16 15 15 14 15 16 17 17 17 17 17 16 16 16 16 14 14 14 15 14 13 12 11 10 10 10 9 8 8 7 7 7 4 5 11 12 12 14 14 12
14 11 13 17 16 17 15 15 14 14 14 15 15 16 16 15 15 16 14 14 14 14 14 13 12 12 11 10 10 9 9 8 7 5 3 3 4 13 13 12 14 14 14
12 10 12 17 16 17 17 16 15 15 14 13 14 14 14 14 14 13 13 12 14 14 13 13 13 13 12 11 10 9 8 7 6 3 1 1 2 8 15 14 14 14 14
12 10 15 18 17 16 17 16 15 15 15 14 13 13 14 14 13 12 12 12 12 13 13 13 12 12 11 10 9 7 6 5 3 2 2 4 4 8 15 14 15 14 13
14 11 13 17 18 18 18 17 15 15 14 14 15 14 15 15 14 13 13 13 12 12 12 11 10 9 10 9 8 7 6 6 2 4 3 2 4 7 15 17 17 15 15
16 12 13 17 17 17 18 17 16 15 14 15 15 15 14 13 12 12 12 12 11 10 10 9 10 10 9 9 9 9 9 10 5 4 4 4 6 8 15 17 16 16 15
12 14 11 13 15 18 17 17 17 16 15 15 14 13 12 12 12 12 12 12 12 11 11 12 13 13 11 10 10 11 12 11 4 3 4 4 8 10 13 15 14 14 17
8 13 15 14 12 11 11 18 17 17 16 15 14 13 12 13 14 14 13 14 15 14 14 13 13 13 12 12 12 12 13 13 5 4 4 4 11 14 14 17 16 14 15
6 6 11 14 13 11 10 12 16 18 17 16 15 15 11 6 7 10 11 13 14 14 14 14 14 14 13 14 14 14 15 5 5 4 3 10 14 15 16 17 17 15 16
12 9 9 10 13 11 8 8 8 7 7 7 7 7 6 5 5 7 10 15 16 15 15 15 16 16 15 6 6 14 6 4 4 5 4 13 14 15 15 17 16 16 16
12 9 11 9 9 10 7 5 5 5 4 5 8 7 6 5 5 5 3 5 5 12 7 10 10 8 8 5 5 4 5 4 4 5 7 13 12 12 13 16 15 15 15
7 10 11 11 9 9 5 5 6 6 5 6 7 7 5 4 5 6 6 8 7 6 9 7 5 8 8 8 8 7 7 6 4 4 6 15 13 11 11 12 15 14 12
9 9 10 11 12 12 9 6 6 8 8 9 5 6 6 6 7 7 9 6 7 5 7 7 7 7 7 8 8 9 9 9 8 5 3 13 14 12 12 15 16 16 16
8 10 10 12 12 11 12 12 11 8 10 8 8 9 12 9 8 8 6 6 6 6 6 6 7 7 6 5 7 8 10 8 7 6 4 6 16 15 16 16 16 18 19
17 10 14 13 12 12 13 12 9 9 8 9 9 10 11 10 9 9 5 4 5 4 5 5 5 4 4 4 9 7 7 7 4 4 4 4 4 13 17 20 21 21 23
9 11 10 12 13 13 11 7 6 7 7 7 6 6 10 10 11 5 5 5 4 4 5 5 5 5 5 5 6 5 3 4 4 5 3 4 4 5 11 21 22 24 23
17 13 8 3 4 5 5 5 6 7 6 6 3 4 7 9 12 9 7 8 10 7 5 2 3 4 4 2 3 2 2 2 2 2 7 8 9 9 6 12 20 19 4
21 22 20 14 14 8 4 4 4 5 9 12 11 10 14 12 12 9 10 7 5 8 6 3 4 3 2 3 2 3 3 4 4 6 9 9 9 9 9 10 7 5 15
22 22 20 20 16 14 12 11 3 6 9 9 8 18 11 4 11 14 11 9 6 9 9 3 2 4 4 4 1 2 3 6 7 9 7 7 8 11 10 11 6 5 9
17 17 17 16 15 11 8 8 5 1 5 11 11 11 15 13 10 9 14 5 18 10 7 6 5 3 3 6 3 1 2 3 4 6 6 6 7 6 6 6 6 7 8
17 16 14 14 12 11 8 3 4 3 0 2 3 7 7 9 9 11 13 13 13 5 3 4 6 8 5 4 7 4 2 3 2 1 3 2 4 4 4 5 8 9 9
9 8 8 8 10 10 10 8 7 2 2 1 2 2 4 4 6 7 11 8 6 6 7 8 8 7 4 4 2 4 0 3 3 2 2 2 2 4 4 4 4 6 7
4 5 6 6 7 7 7 7 5 5 3 5 4 4 2 2 3 5 6 6 7 5 5 6 4 4 3 3 3 3 2 2 1 1 1 4 3 3 4 3 1 1 2
6 7 7 8 7 8 7 7 7 5 0 2 3 3 3 3 4 4 7 5 6 5 4 3 3 3 3 3 3 3 3 3 2 2 2 3 3 2 4 5 6 4 2
Wind_Direction
201 161 164 157 141 133 129 127 125 122 119 117 116 115 118 124 130 132 133 132 135 136 136 137 133 132 129 126 123 118 115 112 127 133 143 150 157 160 163 159 151 147 148
138 156 162 155 146 138 132 130 130 130 130 130 127 126 128 128 131 131 135 135 138 140 140 140 142 141 138 138 134 127 118 124 140 146 152 161 170 173 175 174 173 167 164
143 151 156 157 150 142 136 130 130 130 131 132 133 133 130 131 135 139 141 143 146 146 149 152 151 151 155 154 147 141 140 151 153 153 166 171 196 187 182 188 179 172 165
136 140 156 160 152 147 143 140 137 134 132 134 135 135 136 139 144 148 151 153 155 157 159 160 160 166 170 168 164 165 165 159 160 173 156 192 226 197 185 173 179 178 174
134 139 157 159 155 151 153 152 149 146 145 145 144 144 148 151 154 157 159 161 165 168 170 171 175 178 180 181 185 182 185 181 166 155 240 285 277 206 184 180 183 183 185
139 144 165 159 158 157 158 159 158 157 157 156 158 160 163 166 169 172 173 175 179 182 184 186 185 187 192 196 203 204 212 217 167 105 345 308 311 212 181 181 186 190 192
148 152 158 163 164 163 163 165 167 167 165 165 171 176 180 182 183 184 188 191 193 198 197 198 199 204 209 211 214 225 230 248 162 175 215 278 308 212 183 187 193 191 194
154 157 159 168 171 169 169 170 172 174 176 178 182 186 190 192 193 195 199 202 205 209 213 214 214 218 221 224 224 232 234 237 234 201 203 241 253 224 199 197 202 189 195
155 161 168 167 177 177 174 176 177 179 185 192 190 192 196 199 202 205 209 209 213 215 216 216 217 220 224 231 237 242 244 246 232 256 239 225 246 245 231 213 202 195 191
168 171 175 172 176 181 181 183 184 187 190 197 199 198 201 206 210 212 212 214 215 215 220 225 227 229 230 232 239 247 258 265 259 245 254 257 258 250 236 215 196 194 189
189 206 188 180 176 184 183 193 191 195 200 201 206 206 205 204 212 220 224 226 233 231 232 234 236 236 238 239 240 246 251 234 230 229 237 265 268 266 251 215 197 194 196
196 199 207 191 181 179 190 193 189 201 203 204 205 201 202 205 205 217 226 234 236 239 239 239 239 236 237 227 233 243 236 234 221 232 227 248 269 279 240 210 193 191 194
194 195 202 198 191 175 198 183 196 197 196 203 204 198 201 204 211 217 215 230 230 236 232 235 236 233 230 231 235 227 238 235 226 237 242 249 245 252 214 194 193 193 203
201 212 201 198 200 190 182 189 200 197 199 210 216 201 198 209 214 222 224 223 221 221 229 229 229 227 221 219 222 226 221 226 228 240 230 243 238 226 205 206 200 199 219
270 252 215 213 200 194 193 185 202 205 207 205 191 197 199 212 217 218 229 230 232 235 235 225 223 223 220 222 226 228 234 230 221 220 205 232 230 230 230 222 207 192 206
229 235 233 221 231 208 205 196 203 209 212 202 196 202 203 212 223 228 235 234 239 231 232 229 225 226 228 216 228 226 237 237 220 196 194 226 228 230 223 223 224 226 225
268 207 215 211 212 225 227 217 211 217 213 209 205 200 207 211 227 238 238 235 232 223 232 258 269 246 230 220 231 222 218 221 190 201 191 207 220 221 229 234 235 242 246
297 237 198 212 208 217 227 239 246 236 225 226 218 213 209 211 220 215 225 241 221 227 212 214 217 243 242 230 249 232 196 166 211 222 233 245 250 260 253 246 252 256 259
31 21 349 306 292 256 270 266 252 244 232 236 239 303 350 349 358 348 6 356 338 327 305 291 274 235 243 228 239 161 161 191 256 241 244 241 241 235 236 255 261 267 261
28 33 32 28 12 353 330 313 308 349 13 24 30 42 55 36 3 347 319 309 326 299 277 244 213 231 197 182 217 199 207 206 215 231 242 242 249 252 245 247 248 192 182
34 33 24 34 24 27 11 358 354 95 57 20 33 347 344 174 37 349 278 290 268 268 260 264 238 205 204 173 202 228 227 221 227 237 249 250 246 246 245 240 205 193 202
37 37 23 28 20 33 26 18 22 169 137 201 238 229 266 284 247 215 250 266 247 226 228 232 226 228 198 178 193 95 295 311 248 237 243 237 238 232 230 218 201 192 208
38 33 32 16 23 24 22 13 346 340 8 236 224 226 237 262 233 247 228 225 263 229 269 236 215 218 222 189 191 163 183 247 19 309 254 229 234 222 223 210 203 203 202
43 38 37 31 12 15 21 34 38 33 47 5 348 312 278 258 273 277 268 277 255 252 260 262 228 214 188 199 154 213 196 137 181 287 306 277 258 224 219 213 224 207 201
55 45 31 32 34 2 17 42 47 32 354 347 345 329 305 286 260 300 301 314 310 321 312 257 235 179 169 167 156 141 142 129 166 150 271 320 336 19 356 325 294 196 178
40 28 19 15 9 359 4 7 24 38 74 307 302 294 294 289 286 303 308 307 298 297 297 291 278 234 194 188 157 152 145 149 153 160 206 241 267 21 31 26 38 30 1